www.pogodaiklimat.ru

Погода и климат >> Архив погоды >> Хорватия >> Dubrovnik-Gorica


ПОГОДА в Dubrovnik-Gorica

  • Прогноз погоды в Dubrovnik-Gorica
  • Монитор погоды в Dubrovnik-Gorica
  • Климат города

АРХИВ ПОГОДЫ в Dubrovnik-Gorica

Время (UTC), дата Ветер
(напр.,м/с)
 
Видим.   Явления Облачность Т
(С)
Тd
(С)
f
(%)
Тe
(С)
Тes
(С)
Комфортность P
(гПа)
Po
(гПа)
Тmin
(С)
Tmax
(С)
R
(мм)
R24
(мм)
S
(см)
04 14.04 СВ 2 20 км ясно +16.0 +7.5 57 +16 +16 1017.2 1010.8
05 14.04 С 1 20 км ясно +15.2 1017.4 1011.0
06 14.04 Ю 1 20 км ясно +17.3 1017.3 1011.0 +13.9
07 14.04 З 1 20 км 3/0
[Ci fib]
+18.6 +6.8 46 +20 +27 1017.4 1011.1
08 14.04 ЮВ 2 20 км 3/0
[Ci fib]
+20.2 +8.2 46 +22 +31 комфорт 1017.9 1011.6
09 14.04 ЮЗ 1 20 км 3/0
[Ci fib]
+20.6 +11.7 57 +24 +38 комфорт 1018.2 1011.9
10 14.04 ЮЗ 2 20 км 3/0
[Ci fib]
+20.5 +9.1 48 +23 +37 комфорт 1018.1 1011.8
11 14.04 ЮЗ 2 15 км 5/0
[Cs]
+21.1 1018.0 1011.8
12 14.04 З 5 15 км 5/0
[Cs]
+20.2 1018.1 1011.8
13 14.04 З 3 15 км 8/0
[Cs]
+19.7 +14.8 73 +22 +30 комфорт 1017.9 1011.7
18 14.04 СЗ 2 15 км 8/0
[Ac As]
+18.0 +6.9 48 +19 +19 1015.3 1009.0 +21.3
19 14.04 С 3 15 км ясно +17.7 +9.0 57 +18 +18 1015.3 1009.0
20 14.04 ЮВ 1 15 км ясно +18.0 +10.1 60 +19 +19 1015.1 1008.8
03 15.04 штиль 0 15 км 3/0
[Ci sp]
+19.3 +7.0 45 +20 +20 1013.1 1006.8
05 15.04 З 2 15 км 10/0
[Ac As]
+19.3 +9.9 54 +21 +21 комфорт 1012.2 1006.0
04 15.04 З 3 15 км 9/0
[Ac und]
+19.5 +7.6 46 +21 +21 комфорт 1012.4 1006.2
06 15.04 СЗ 3 15 км 10/0
[Ac As]
+20.6 +8.8 47 +22 +23 комфорт 1012.4 1006.2 +16.2
07 15.04 СВ 3 15 км 10/0
[Ac As]
+22.2 +9.6 45 +24 +25 комфорт 1011.6 1005.4
08 15.04 ЮЗ 2 15 км 10/0
[Ac As]
+25.1 +6.5 30 +25 +28 комфорт 1011.1 1005.0
09 15.04 Ю 2 15 км 10/0
[Ac As]
+25.0 1011.1 1005.0
11 15.04 СВ 7 15 км 9/0
[As trans]
+28.1 +5.0 23 +27 +29 жарко 1010.1 1004.0
10 15.04 В 7 15 км 10/0
[Ac As]
+23.2 +11.2 47 +25 +27 комфорт 1011.6 1005.4
12 15.04 СВ 9 15 км 9/0
[As trans]
+29.7 +4.4 20 +28 +29 жарко 1008.3 1002.3
13 15.04 СВ 9 15 км 9/0
[As trans]
+30.2 +2.9 18 +28 +29 жарко 1007.3 1001.3
18 15.04 ЮВ 3 15 км 10/0
[Ac As]
+24.9 +7.5 33 +25 +25 комфорт 1007.2 1001.1 +30.3
19 15.04 ЮВ 9 15 км 10/0
[Ac As]
+26.9 +7.9 30 +27 +27 жарко 1007.2 1001.1
20 15.04 ЮВ 7 15 км 10/0
[Ac As]
+27.0 1007.3 1001.2
03 16.04 ЮВ 6 15 км 10/0
[Ac As]
+19.5 +11.4 59 +20 +20 1009.4 1003.2
04 16.04 ЮВ 7 15 км 10/0
[Ac As]
+20.0 +11.2 57 +21 +21 комфорт 1009.3 1003.1
05 16.04 ЮВ 11 15 км 9/0
[As trans]
+19.4 +13.7 70 +20 +20 1009.4 1003.2
06 16.04 ЮВ 9 15 км 10/0
[Ac As]
+18.2 +15.3 83 +17 +18 1010.5 1004.3 +18.2
07 16.04 ЮВ 8 15 км 10/5 1000 м
[Cu med, cong As trans]
+18.4 +15.7 84 +18 +18 1011.2 1005.0
08 16.04 ЮВ 8 15 км 10/3 1000 м
[Cu hum As trans]
+18.6 +15.2 81 +19 +19 1011.2 1005.0
09 16.04 ЮВ 6 15 км 10/3 1000 м
[Cu hum As trans]
+18.9 +15.5 81 +20 +21 1011.2 1005.0
10 16.04 ЮВ 7 15 км 10/1 1000 м
[Cu hum Ac As]
+19.1 +16.3 84 +20 +21 1011.4 1005.2
11 16.04 ЮВ 6 15 км 10/0
[Ac As]
+18.8 1011.7 1005.5
12 16.04 ЮВ 6 15 км 8/0
[Ac und]
+19.0 1011.7 1005.5
13 16.04 ЮВ 8 15 км 9/0
[Ac und]
+19.2 +15.0 77 +20 +21 1011.9 1005.7
18 16.04 С 1 12 км 10/5 300 м
[Cu med, cong As trans]
+17.7 1019.8 1013.5
20 16.04 ЮВ 4 12 км 3/3 600 м
[Cu med, cong]
+17.1 +12.7 75 +17 +17 1013.7 1007.4
19 16.04 В 3 12 км 8/8 300 м
[Cu med, cong]
+17.2 1013.3 1007.0
03 17.04 ЮВ 2 12 км 10/5 600 м
[Cu med, cong As trans]
+16.2 +12.6 79 +16 +16 1015.5 1009.2
04 17.04 ЮВ 2 12 км 10/4 600 м
[Cu med, cong As trans]
+16.0 +13.3 84 +16 +16 1015.7 1009.4
05 17.04 В 2 12 км 10/0
[As trans]
+16.1 +12.7 80 +16 +16 1016.3 1010.0
06 17.04 ЮВ 1 12 км 10/1 1000 м
[Cu med, cong Ac As]
+16.6 1017.3 1011.0
08 17.04 ЮВ 1 12 км 10/4 1000 м
[Cu med, cong As trans]
+18.2 +14.4 78 +20 +22 1018.1 1011.8
07 17.04 Ю 2 12 км 10/3 1000 м
[Cu med, cong Ac As]
+17.1 +13.1 77 +17 +19 1017.7 1011.4
09 17.04 ЮЗ 2 12 км 10/5 1000 м
[Cu med, cong As trans]
+18.0 1018.2 1011.9
10 17.04 ЮЗ 2 12 км 8/6 1000 м
[Cu med, cong Ci fib]
+19.1 +16.7 86 +21 +27 комфорт 1018.2 1011.9
11 17.04 Ю 2 12 км 8/8 600 м
[Cu med, cong]
+19.6 1018.6 1012.3
12 17.04 Ю 2 12 км 8/8 600 м
[Cu med, cong]
+19.5 +16.0 80 +22 +25 комфорт 1018.6 1012.3
13 17.04 З 3 12 км 9/9 600 м
[Cu med, cong]
+19.7 +16.6 82 +22 +23 комфорт 1018.6 1012.3
18 17.04 СЗ 4 12 км 8/8 1000 м
[Sc]
+17.2 +13.5 79 +17 +17 1018.2 1011.9 +20.3
19 17.04 СЗ 3 12 км 9/9 1000 м
[Cu Sc]
+18.0 +12.5 70 +18 +18 1018.3 1012.0
20 17.04 С 2 12 км 8/4 1000 м
[Cu Sc Ac trans]
+18.3 +12.6 69 +19 +19 1018.7 1012.4
03 18.04 СВ 10 20 км ясно +20.2 1019.3 1013.0
04 18.04 СВ 11 20 км 1/0
[Ac lent]
+20.4 +8.5 46 +21 +21 комфорт 1019.3 1013.0
05 18.04 СВ 9 20 км 1/0
[Ac lent]
+20.2 +8.2 46 +21 +21 комфорт 1019.9 1013.6
06 18.04 СВ 6 20 км 1/0
[Ac lent]
+21.3 +8.8 45 +23 +24 комфорт 1020.5 1014.2 +17.2
07 18.04 СВ 7 20 км 4/0
[Ac und]
+21.8 +9.3 45 +23 +25 комфорт 1021.2 1014.9
08 18.04 В 3 20 км 8/0
[Ac und]
+22.2 +9.6 45 +24 +28 комфорт 1021.5 1015.3
09 18.04 СВ 4 20 км 8/0
[Ac und]
+23.1 1021.9 1015.7
10 18.04 ЮВ 2 20 км 9/0
[Ac As]
+24.0 +9.6 40 +25 +31 комфорт 1022.2 1016.0
11 18.04 СВ 3 20 км 9/0
[Ac As]
+25.0 +10.3 40 +26 +31 жарко 1021.8 1015.6
12 18.04 СВ 6 20 км 9/0
[Ac As]
+25.3 1021.4 1015.2
13 18.04 СВ 7 20 км 9/1 1500 м
[Cu hum Ac As]
+24.8 +9.4 38 +26 +27 жарко 1021.2 1015.0
18 18.04 СВ 9 20 км 4/4 1000 м
[Cu med, cong]
+21.8 1021.5 1015.2
19 18.04 СВ 14 20 км 3/3 1000 м
[Cu med, cong]
+21.0 +6.7 39 +21 +21 комфорт 1022.1 1015.8
03 19.04 СВ 12 30 км ясно +19.7 +6.3 42 +19 +19 1022.4 1016.1
04 19.04 СВ 9 30 км ясно +19.8 +6.0 40 +20 +20 1022.4 1016.1
05 19.04 СВ 12
{12}
30 км ясно +20.0 1022.7 1016.4
06 19.04 СВ 9 30 км ясно +20.5 1023.1 1016.8 +19.5
07 19.04 СВ 10 30 км ясно +21.9 +6.1 36 +23 +23 комфорт 1023.4 1017.1
08 19.04 ЮВ 3 30 км ясно +23.4 +9.0 40 +25 +33 комфорт 1023.4 1017.2
09 19.04 ЮВ 5 30 км ясно +22.5 +10.6 47 +24 +32 комфорт 1024.0 1017.7
10 19.04 ЮВ 4 30 км 1/1 1000 м
[Cu hum]
+22.4 +11.3 49 +25 +34 комфорт 1024.1 1017.8
11 19.04 ЮВ 3 30 км 3/3 1000 м
[Cu med, cong]
+22.9 +11.1 47 +25 +35 комфорт 1024.2 1018.0
12 19.04 ЮЗ 3 30 км 3/3 1000 м
[Cu med, cong]
+23.3 1023.6 1017.4
13 19.04 Ю 2 30 км 3/3 1000 м
[Cu med, cong]
+22.2 +14.0 60 +25 +34 комфорт 1023.4 1017.2
18 19.04 В 1 30 км ясно +19.8 +12.5 63 +23 +23 комфорт 1021.3 1015.0 +24.0
19 19.04 СЗ 2 30 км ясно +19.1 +12.2 64 +21 +21 комфорт 1021.3 1015.0
20 19.04 С 2 30 км ясно +18.6 +11.6 64 +20 +20 1021.3 1015.0
03 20.04 СВ 3 30 км ясно +19.3 1020.2 1013.9
05 20.04 СВ 4 30 км 3/0
[Ci fib]
+19.6 +5.0 38 +20 +21 1019.8 1013.5
04 20.04 СВ 4 30 км ясно +19.1 +4.7 39 +19 +19 1019.8 1013.5
06 20.04 СВ 4 30 км 3/0
[Ci fib]
+21.2 +5.5 36 +22 +24 комфорт 1019.7 1013.4 +18.6
07 20.04 С 2 30 км 3/0
[Ci fib]
+23.0 +6.5 34 +24 +30 комфорт 1019.3 1013.1
08 20.04 СЗ 3 30 км 3/0
[Ci fib]
+23.9 +5.6 31 +24 +32 комфорт 1019.3 1013.1
09 20.04 З 4 30 км 3/0
[Ci fib]
+24.6 1019.2 1013.0
11 20.04 З 5 30 км 3/1 1000 м
[Cu hum Ci fib]
+25.0 +8.8 36 +26 +33 жарко 1018.3 1012.1
10 20.04 СЗ 5 30 км 3/0
[Ci fib]
+24.5 +7.8 34 +25 +33 комфорт 1018.9 1012.7
12 20.04 З 6 30 км 3/1 1000 м
[Cu hum Ci fib]
+23.2 +12.9 52 +26 +31 жарко 1018.0 1011.8
13 20.04 З 5 30 км 3/1 1000 м
[Cu hum Ci fib]
+24.1 +11.5 45 +26 +31 жарко 1016.8 1010.6
18 20.04 СВ 10 30 км ясно +26.0 -4.4 13 +23 +23 комфорт 1015.7 1009.6 +29.3
19 20.04 СВ 13
{22}
30 км ясно +24.0 -2.4 17 +22 +22 комфорт 1016.3 1010.1
20 20.04 СВ 15
{26}
30 км ясно +23.2 -3.1 17 +22 +22 комфорт 1016.3 1010.1
03 21.04 СВ 8 30 км ясно +19.2 -0.1 27 +19 +19 1017.8 1011.5
04 21.04 СВ 5 30 км ясно +19.0 1018.3 1012.0

 

Местоположение метеостанции Dubrovnik-Gorica (Хорватия): широта 42.65 долгота 18.08 высота над уровнем моря 53 м.

В архиве по умолчанию представлена погода в Dubrovnik-Gorica за последнюю неделю. Архивные данные за месяц целиком и за предыдущие месяцы, начиная с января 2011 года, Вы можете получить, выбрав интересующий диапазон дат из раскрывающегося списка и нажав кнопку "Ввод!".


*Определитесь, кто Вы:
робот инопланетянин человек

Внимание! Время в таблицах - всемирное. Для получения местного времени необходимо прибавить поправку, которая в Dubrovnik-Gorica равна 1 ч.

Смотрите также архив погоды в соседних городах и на ближайших метеорологических станциях:

Погода в Dubrovnik-Cilipi (Хорватия) (18 км)
Погода в Neum (Босния и Герцеговина) (49 км)
Погода в Tivat (Черногория) (60 км)
Погода в Ploce (Хорватия) (68 км)
Погода в Niksic (Черногория) (72 км)
Погода в Mostar (Босния и Герцеговина) (81 км)
Погода в Lastovo (Хорватия) (97 км)
Погода в Podgorica (Черногория) (101 км)
Погода в Podgorica-Grad (Черногория) (101 км)
Погода в Bar (Черногория) (104 км)

Пояснения к столбцам:

Ветер - указаны скорость ветра в м/с - средняя за 10 мин, порывы в срок и между сроками (в фигурных скобках) и направление, откуда дует ветер: С - северный, СВ - северо-восточный, В - восточный, ЮВ - юго-восточный, Ю - южный, ЮЗ - юго-западный, З - западный, СЗ - северо-западный.
Видимость - горизонтальная дальность видимости в метрах или километрах. При видимости от 1 до 10 км при отсутствии осадков обычно наблюдается дымка, при ухудшении видимости до 1 км и менее - туман. В сухую погоду видимость может ухудшаться дымом, пылью или мглою.
Явления - указаны атмосферные явления, наблюдавшиеся в срок или в последний час перед сроком; фигурными скобками обозначены явления, наблюдавшиеся между сроками (за 1-3 часа до срока); квадратными скобками обозначены град или гололедные отложения с указанием их диаметра в мм.
Облачность - указаны через наклонную черту общая и нижняя облачность в баллах и высота нижней границы облаков в метрах; квадратными скобками обозначены формы облаков: Ci - перистые, Cs - перисто-слоистые, Cc - перисто-кучевые, Ac - высококучевые, As - высокослоистые, Sc - слоисто-кучевые, Ns - слоисто-дождевые, Cu - кучевые, Cb - кучево-дождевые. Подробнее классификацию облаков см. в Атласе облаков (PDF).
T - Температура воздуха - температура, измеренная на высоте 2 м над землей.
Td - Температура точки росы - температура, при понижении до которой содержащийся в воздухе водяной пар достигнет насыщения.
f - Относительная влажность воздуха - влажноcть воздуха, измеренная на высоте 2 м над землей.
Te - Эффективная температура - температура, которую ощущает одетый по сезону человек в тени. Характеристика душности погоды. При расчете учитывается влияние влажности воздуха и скорости ветра на теплоощущения человека.
Tes - Эффективная температура на солнце - температура, которую ощущает человек, с поправкой на солнечный нагрев. Характеристика знойности погоды. Зависит от высоты солнца над горизонтом, облачности и скорости ветра. Ночью, в пасмурную погоду, а также при ветре 12 м/с и более поправка равна нулю.
P - Атмосферное давление - приведенное к уровню моря атмосферное давление.
Po - Атмосферное давление - измеренное на уровне метеостанции атмосферное давление.
Tmin - Минимальная температура - минимум температуры воздуха на высоте 2 м над землей.
Tmax - Максимальная температура - максимум температуры воздуха на высоте 2 м над землей.
R - Количество осадков - Количество выпавших осадков за период времени, мм. При наведении курсора мыши на число - период времени, за который выпало указанное количество осадков.
R24 - Количество осадков - Количество выпавших осадков за 24 часа, мм.
S - Снежный покров - Высота снежного покрова, см. При наведении курсора мыши на число - состояние снежного покрова и степень покрытия местности в баллах.